This is the latest recevied weather packets stored in our database for station/object N8HON. If no packets are shown the sender has not sent any weather packets the latest 10 day(s).
| Time | Temp. | Humidity | Pressure | Rain* | Wind** | Luminosity | Snow |
|---|---|---|---|---|---|---|---|
| 1778010636 | 25° C | 35% | 1008.9 hPa | 0 mm | - | 320 W/m² | - |
| 1778010333 | 25° C | 33% | 1009.1 hPa | 0 mm | - | 338 W/m² | - |
| 1778010028 | 25.56° C | 33% | 1009 hPa | 0 mm | - | 350 W/m² | - |
| 1778009725 | 26.11° C | 33% | 1009.2 hPa | 0 mm | - | 400 W/m² | - |
| 1778009423 | 25.56° C | 35% | 1009.3 hPa | 0 mm | - | 575 W/m² | - |
| 1778009121 | 25.56° C | 32% | 1009.3 hPa | 0 mm | - | 635 W/m² | - |
| 1778008818 | 25.56° C | 33% | 1009.4 hPa | 0 mm | - | 545 W/m² | - |
| 1778008516 | 25.56° C | 36% | 1009.3 hPa | 0 mm | - | 488 W/m² | - |
| 1778008215 | 25.56° C | 34% | 1009.2 hPa | 0 mm | - | 611 W/m² | - |
| 1778007908 | 25.56° C | 33% | 1009.3 hPa | 0 mm | - | 521 W/m² | - |
| 1778007605 | 25.56° C | 32% | 1009.5 hPa | 0 mm | - | 547 W/m² | - |
| 1778007302 | 25° C | 31% | 1009.6 hPa | 0 mm | - | 548 W/m² | - |
| 1778006998 | 25° C | 34% | 1009.5 hPa | 0 mm | - | 516 W/m² | - |
| 1778006695 | 25.56° C | 35% | 1009.4 hPa | 0 mm | - | 558 W/m² | - |
| 1778006391 | 25.56° C | 32% | 1009.6 hPa | 0 mm | - | 590 W/m² | - |
| 1778006088 | 26.67° C | 35% | 1009.8 hPa | 0 mm | - | 676 W/m² | - |
| 1778005785 | 26.11° C | 34% | 1009.5 hPa | 0 mm | - | 661 W/m² | - |
| 1778005482 | 25.56° C | 32% | 1009.8 hPa | 0 mm | - | 657 W/m² | - |
| 1778005178 | 25.56° C | 32% | 1009.9 hPa | 0 mm | - | 652 W/m² | - |
| 1778004876 | 25.56° C | 35% | 1009.9 hPa | 0 mm | - | 669 W/m² | - |
| 1778004572 | 25.56° C | 31% | 1009.7 hPa | 0 mm | - | 686 W/m² | - |
| 1778004269 | 25.56° C | 32% | 1010.2 hPa | 0 mm | - | 707 W/m² | - |
| 1778003966 | 25.56° C | 34% | 1010.2 hPa | 0 mm | - | 681 W/m² | - |
| 1778003662 | 25° C | 32% | 1010.4 hPa | 0 mm | - | 644 W/m² | - |
| 1778003358 | 25.56° C | 33% | 1010.1 hPa | 0 mm | - | 651 W/m² | - |
* Rain latest hour (hover to see other rain measurements)
** Current wind speed in m/s (hover to see current wind gust speed)